Lapse_Rate
5.8 5.9 5.8 6.2 7.0 7.9 7.4 7.1 7.0 7.3 7.4 7.4 7.7 7.9 7.9 7.5 7.2 7.2 7.3 6.2 5.6 5.6 6.0 6.4 6.2 5.1 4.7 4.3 4.5 4.7 4.8 4.4 4.3 4.1 4.4 5.5 5.1 4.9 4.9 4.9 4.3 4.1 4.0
5.5 5.2 5.3 5.3 5.4 6.1 6.5 7.1 6.9 6.5 7.1 6.7 6.3 6.8 7.1 7.5 7.9 7.8 8.1 8.1 6.3 5.9 6.0 6.3 6.4 6.3 5.6 4.9 4.2 4.6 4.8 4.6 4.2 4.2 4.5 4.1 3.9 3.4 4.3 4.2 4.5 4.2 3.8
5.8 5.9 5.4 5.2 5.4 6.1 6.2 6.6 6.4 7.5 7.0 6.8 6.6 6.6 7.0 7.0 5.9 6.8 7.5 8.2 8.4 6.0 6.0 5.9 6.0 6.2 6.1 5.6 4.9 4.0 4.5 4.7 4.3 4.2 4.7 3.9 3.5 3.7 3.2 3.2 3.4 4.0 4.7
6.8 5.9 5.9 6.2 7.3 7.2 6.3 6.2 5.7 5.3 4.8 4.1 4.4 4.1 4.5 5.3 5.5 5.8 5.6 6.3 7.9 8.3 4.9 5.2 5.1 5.7 5.9 5.7 5.9 5.5 5.3 5.3 4.7 4.2 4.5 4.9 4.2 5.0 3.7 2.5 2.7 3.5 3.8
7.4 6.3 5.8 6.1 6.6 5.4 5.2 4.7 4.2 4.1 3.7 3.5 3.3 3.4 3.4 3.5 3.7 5.3 4.5 5.2 5.6 6.2 7.0 6.1 4.4 4.7 5.3 6.1 6.3 6.3 6.5 6.3 5.8 5.1 5.0 4.8 5.0 5.8 4.8 5.4 4.3 3.9 3.3
6.7 6.2 5.8 5.4 5.5 5.8 6.2 5.4 5.7 4.6 4.1 4.2 5.1 4.4 3.3 3.1 3.5 3.0 4.1 5.7 6.1 5.5 5.8 7.0 7.1 5.8 4.8 5.5 6.2 6.8 6.7 7.3 7.7 7.5 7.1 7.1 7.1 6.9 6.9 7.0 5.4 5.0 5.1
6.8 6.0 5.8 5.6 5.8 6.1 7.4 7.0 6.5 6.4 5.6 5.9 5.3 4.8 5.2 5.2 5.0 4.6 4.7 4.9 5.4 6.2 6.5 6.6 6.6 7.3 7.7 5.1 5.8 6.6 6.8 7.1 7.6 7.6 7.5 7.2 7.3 7.3 7.2 7.4 7.2 7.2 6.7
6.5 6.4 6.9 7.1 6.5 5.4 5.2 5.0 4.8 4.4 4.5 4.5 5.4 5.2 5.3 5.4 4.8 4.9 5.3 5.4 4.8 5.8 6.7 7.3 7.2 7.1 7.4 7.1 6.0 5.9 6.5 6.6 7.4 7.3 7.3 6.9 7.3 6.9 7.3 7.5 7.3 7.7 7.5
6.8 6.4 5.8 4.8 4.4 3.7 3.7 4.0 4.5 5.0 4.4 4.5 5.6 5.8 5.1 4.5 5.2 5.8 6.2 4.7 5.2 5.2 5.5 6.6 6.4 6.0 5.9 5.6 5.7 5.0 5.4 5.5 6.9 7.0 6.7 6.8 7.1 7.0 7.4 7.5 7.8 7.6 7.7
6.0 5.8 4.8 3.7 3.5 3.0 3.3 3.6 4.7 3.7 4.1 3.7 3.7 5.0 4.9 5.9 6.4 6.5 6.0 6.2 6.6 6.9 5.8 5.4 5.5 6.1 6.5 5.5 5.5 5.4 4.9 4.8 4.8 6.3 6.3 6.4 6.6 6.9 7.0 7.6 7.2 7.4 7.2
4.8 5.2 3.8 3.6 3.3 2.9 3.1 3.0 2.9 2.8 2.9 3.7 4.7 5.5 5.8 5.9 5.6 6.3 6.8 7.1 6.6 6.4 6.1 6.3 6.1 5.4 5.9 6.2 5.5 6.0 6.0 3.8 4.2 4.8 5.9 6.6 5.9 6.4 7.0 7.3 7.7 8.2 8.1
4.8 4.3 4.8 2.9 3.5 3.3 3.2 2.9 3.2 3.5 3.5 4.1 4.7 5.6 6.8 7.2 7.5 7.4 7.1 7.2 7.2 7.7 7.4 7.1 6.3 5.7 5.9 6.0 5.8 6.0 5.9 3.6 3.8 4.4 6.0 6.3 5.9 6.3 6.2 6.9 7.2 7.4 7.4
5.5 5.2 4.6 2.9 3.1 2.9 3.1 3.4 3.4 3.4 3.8 4.8 6.0 6.4 7.1 7.6 7.7 7.7 7.5 7.1 7.4 7.7 7.7 7.9 7.7 6.5 5.4 5.6 6.1 5.9 5.7 3.8 2.9 3.0 4.5 5.8 7.2 6.1 5.9 6.0 6.6 7.5 7.7
5.1 3.6 3.6 3.6 3.1 3.2 3.5 3.7 3.2 3.3 4.5 4.8 5.3 6.3 7.2 7.4 7.7 7.7 7.5 7.0 7.1 7.5 7.6 7.3 7.9 7.3 5.3 5.9 6.6 6.7 5.3 5.0 3.5 3.0 3.6 5.2 5.5 5.8 5.0 6.1 6.2 6.9 7.7
4.7 3.5 3.1 3.4 3.3 2.7 2.4 3.0 2.7 3.0 3.7 4.0 5.0 6.2 6.5 6.7 7.1 7.6 7.4 7.7 6.8 6.7 7.1 7.4 7.9 7.7 5.9 6.5 7.0 6.7 6.2 5.9 3.9 3.1 3.3 3.7 4.9 5.9 5.7 5.5 5.8 6.5 7.1
3.9 3.1 3.1 2.7 2.9 3.0 3.0 3.1 3.2 3.8 4.5 5.2 6.2 6.1 5.8 5.8 6.7 7.2 7.4 7.5 7.4 7.0 6.7 7.5 7.5 7.6 7.9 6.9 6.8 6.5 6.2 6.2 5.1 3.3 3.3 3.1 4.0 4.8 5.3 5.1 5.3 5.5 6.3
3.0 3.1 2.9 2.4 2.7 2.9 2.8 2.8 3.2 3.4 3.6 4.2 4.2 5.7 5.5 6.6 7.0 7.2 7.2 7.6 7.6 7.7 7.3 7.6 7.6 7.4 7.4 6.6 6.3 6.3 6.3 5.3 4.8 3.8 3.0 3.6 4.2 4.6 4.0 4.2 4.8 5.7 5.8
1.8 1.6 1.7 2.1 2.2 2.1 2.1 2.3 2.7 3.1 4.1 3.9 4.1 4.2 4.3 5.3 4.8 5.9 6.9 7.5 7.6 7.7 7.7 7.3 7.3 6.8 7.2 6.6 5.8 5.7 6.4 5.6 5.3 5.3 2.7 2.8 3.3 4.3 5.0 4.5 4.0 5.0 5.4
1.2 1.5 1.6 1.0 1.1 1.5 2.2 2.6 3.3 3.6 3.3 3.7 3.8 4.2 4.3 4.7 5.9 6.9 7.0 6.7 6.9 7.6 7.2 7.1 7.4 7.4 7.4 6.6 6.2 5.8 6.3 6.6 5.6 5.2 3.7 2.9 3.9 4.2 3.4 3.4 3.7 4.1 4.8
1.1 1.0 0.5 0.9 1.0 1.8 2.6 3.6 3.2 2.7 2.8 3.0 3.2 3.4 4.1 6.0 6.8 6.5 6.3 6.4 6.3 6.5 6.9 6.9 7.0 7.0 7.0 6.4 6.7 6.2 5.3 6.1 5.5 3.5 3.8 3.6 3.5 3.4 3.3 2.8 3.1 3.7 4.5
0.4 0.1 0.8 0.7 1.5 2.6 3.7 2.3 1.8 1.8 2.3 2.7 2.8 3.4 4.6 6.1 7.0 6.5 6.2 5.7 5.8 6.0 6.0 6.4 6.5 6.6 6.3 5.8 6.0 4.6 6.4 3.4 1.9 2.2 3.1 3.6 4.1 3.9 2.6 2.8 3.5 4.0 4.2
-0.9 0.3 0.6 1.1 2.0 3.1 2.0 1.6 1.6 1.8 2.7 2.6 3.0 3.9 3.8 4.9 5.0 3.9 3.7 4.3 4.9 5.3 5.1 5.6 6.0 6.6 6.1 6.2 6.2 6.2 4.5 3.3 3.3 2.2 2.2 1.5 4.2 4.8 4.1 3.9 3.6 3.5 3.3
-0.6 0.1 0.7 0.8 1.7 1.9 1.3 1.5 2.1 2.2 2.0 2.7 3.5 3.8 3.7 4.5 4.2 4.4 3.6 4.4 4.4 4.1 4.0 4.4 5.2 6.0 6.3 6.0 5.9 4.8 5.2 4.8 3.0 2.2 2.6 1.8 1.1 2.7 3.4 3.4 3.0 3.1 2.9
-1.1 -0.1 -0.0 0.4 1.2 1.0 1.3 1.7 2.0 1.6 2.1 2.9 3.2 3.5 4.3 4.4 4.3 4.5 3.7 3.4 3.0 3.0 3.4 3.6 3.4 3.5 5.5 5.9 6.2 5.8 4.7 2.1 2.2 1.7 1.8 2.7 2.5 2.1 3.2 3.2 2.7 2.6 2.1
-0.6 -0.1 0.1 0.8 0.9 1.1 1.5 2.1 1.9 1.9 2.4 2.3 2.2 3.3 4.6 3.6 3.5 3.1 2.9 3.2 2.8 2.9 2.6 3.3 3.0 3.5 4.9 5.2 4.9 3.4 3.4 3.3 3.7 3.1 2.0 1.9 3.5 3.9 3.1 1.9 1.7 1.7 2.0
0.2 0.1 0.6 0.9 1.1 1.5 2.4 2.8 2.6 2.5 2.6 2.8 3.1 3.6 4.0 4.0 2.6 2.3 3.3 4.1 3.4 3.0 2.9 3.3 3.0 3.7 4.1 4.1 4.0 4.9 3.7 3.7 3.0 4.0 3.6 3.6 4.2 3.4 4.7 4.3 3.0 2.5 2.4
Wind_Speed
4 7 6 9 7 11 10 7 8 6 4 2 4 6 7 8 12 14 13 15 18 18 17 18 19 20 21 20 21 20 19 19 19 19 18 19 19 17 15 15 15 15 14
6 5 4 4 6 7 9 6 4 4 3 3 4 7 7 9 11 12 13 14 21 22 22 21 23 24 25 25 23 23 21 22 23 21 22 21 21 19 19 18 16 15 17
8 6 4 4 7 11 11 8 7 3 1 1 4 3 6 4 6 9 14 14 14 26 28 27 26 27 28 29 28 26 25 25 25 25 25 24 23 23 22 21 19 18 19
13 6 4 4 5 6 1 1 2 2 2 2 4 3 4 6 9 11 14 13 15 16 25 32 30 30 31 31 31 31 29 27 28 28 27 26 25 24 24 25 23 24 21
10 6 4 3 3 2 2 3 0 1 2 2 4 4 4 4 6 10 9 14 17 17 17 19 30 29 31 31 31 33 33 30 30 30 29 27 27 27 27 24 24 24 24
8 6 3 3 4 2 3 4 4 5 3 4 4 6 6 6 8 9 10 14 15 17 16 18 13 19 28 31 33 34 36 34 33 33 31 29 29 29 27 26 27 26 24
8 5 2 4 3 4 3 3 0 2 3 3 3 4 5 9 11 9 10 10 12 15 14 15 17 18 16 31 35 37 38 39 35 35 33 31 31 30 28 28 27 28 27
7 7 4 3 5 4 5 3 3 2 3 3 3 3 4 4 6 7 8 7 7 7 7 12 13 14 17 14 19 34 40 40 40 36 36 33 32 31 30 32 30 28 27
7 8 6 5 5 3 1 2 2 3 3 3 4 3 4 4 7 6 11 5 7 5 5 9 9 12 14 14 13 18 32 34 43 38 36 34 35 33 33 33 33 30 28
6 8 5 4 3 2 2 2 2 2 2 4 3 4 6 7 9 12 4 6 8 11 8 6 8 13 17 16 18 19 22 29 30 36 38 36 36 35 35 34 34 34 34
6 5 7 4 3 1 2 3 3 4 3 3 4 4 4 5 7 10 16 10 8 7 7 8 9 8 13 15 14 17 21 22 26 27 29 35 37 40 36 37 35 32 29
3 5 5 4 2 1 2 3 3 4 4 4 4 5 6 6 8 9 13 13 14 10 9 9 8 7 12 13 14 19 22 17 25 29 34 35 31 37 38 38 36 32 31
2 4 4 4 2 3 4 3 4 4 5 5 5 5 6 7 8 9 10 13 13 12 11 9 9 8 7 12 12 19 22 21 21 23 25 30 37 30 34 39 37 35 32
4 5 3 3 4 4 4 4 3 4 6 5 7 7 7 8 8 8 9 9 14 15 13 16 8 8 6 8 14 21 18 17 21 22 23 26 29 29 30 33 34 34 34
3 5 4 4 4 5 5 5 3 5 5 5 6 6 7 8 7 8 8 8 8 13 18 9 10 8 8 13 12 15 15 15 20 22 24 26 29 30 32 33 36 33 30
4 4 3 4 3 2 3 4 3 4 6 6 7 8 8 8 9 8 8 9 8 10 15 9 9 8 11 9 13 14 13 15 12 19 23 25 28 21 27 43 36 34 27
4 3 3 3 4 5 5 5 5 7 7 9 8 11 11 10 8 8 8 9 9 10 14 14 11 11 15 11 8 11 13 8 9 16 20 23 22 22 23 31 37 37 36
5 5 5 4 4 5 5 5 6 7 9 9 10 10 11 9 12 11 9 12 11 11 12 19 13 10 14 13 6 10 9 8 6 10 18 20 23 23 36 35 38 34 33
5 4 2 4 5 5 5 4 5 6 7 8 10 11 12 12 12 10 11 11 11 10 11 12 13 10 8 5 7 8 10 13 6 13 14 18 20 25 33 38 40 42 40
4 3 5 5 4 3 5 5 5 6 8 9 10 11 12 12 14 14 13 14 12 12 12 11 12 10 8 5 5 7 8 9 6 3 8 12 13 28 37 41 40 43 43
4 6 4 4 2 3 3 5 6 7 9 11 11 11 11 14 20 17 11 13 14 12 11 11 12 10 9 6 6 2 8 1 2 1 2 2 8 11 21 33 39 42 41
7 4 3 2 3 3 7 6 6 7 9 10 10 12 11 15 13 19 22 24 21 16 16 12 11 12 12 8 6 6 2 1 2 3 5 5 3 10 12 21 37 41 41
5 2 2 3 3 4 7 8 9 6 8 9 10 9 10 7 12 13 19 23 23 25 25 18 17 14 12 8 5 4 5 3 2 1 11 5 6 7 4 25 44 43 41
2 2 2 0 3 2 7 8 11 7 6 8 8 10 10 11 11 15 15 15 15 15 15 12 16 15 10 5 9 6 3 7 7 4 5 4 3 6 7 18 40 38 38
3 2 2 0 1 3 6 6 8 6 7 6 6 7 8 10 16 21 14 14 14 12 15 16 14 14 11 11 8 8 7 10 4 3 5 8 4 9 7 8 22 34 34
3 2 2 3 5 3 4 5 7 4 7 7 7 6 10 13 16 18 12 12 11 11 11 6 5 5 1 11 18 11 9 9 8 5 1 5 11 7 4 4 8 19 24
Wind_Direction
183 193 195 209 202 203 207 205 215 236 221 280 284 251 232 261 285 290 294 215 211 213 210 213 219 222 221 214 203 209 202 201 201 199 202 196 197 201 202 196 193 193 193
184 190 192 196 215 224 246 253 219 234 216 201 241 252 250 244 243 264 261 260 220 223 222 219 221 223 224 222 217 211 215 205 205 207 212 209 199 202 197 198 193 191 198
192 192 195 212 208 208 221 236 246 243 222 255 252 303 267 294 305 273 253 257 256 231 229 226 223 224 224 223 218 213 214 210 204 210 219 209 206 202 196 196 190 202 206
187 189 209 205 196 183 211 148 55 37 346 329 294 290 298 296 284 268 274 277 258 254 226 226 224 224 224 226 223 216 218 217 214 209 212 211 208 206 198 193 192 197 197
191 179 180 190 132 172 141 94 143 208 240 260 277 276 273 275 276 276 257 261 263 262 262 236 230 229 229 231 228 225 224 221 215 220 218 211 208 204 200 199 200 197 193
170 160 165 173 198 170 174 168 203 196 218 230 250 250 237 243 256 257 265 271 255 251 262 272 268 244 241 236 233 230 229 226 223 222 220 219 214 206 202 203 196 197 197
177 151 158 203 191 201 170 150 205 329 312 316 295 285 252 237 242 244 246 248 257 263 261 251 253 265 250 236 240 236 232 232 228 222 220 219 213 203 202 202 202 196 193
152 182 155 129 83 54 35 27 16 329 296 298 277 298 282 293 266 235 240 247 251 258 261 253 253 257 269 266 238 245 237 235 234 228 216 211 211 200 201 200 201 197 194
116 91 82 63 56 63 332 3 15 312 281 285 300 259 317 261 325 301 293 267 251 250 246 251 238 254 255 266 258 236 243 246 237 229 225 210 204 200 198 200 198 196 195
121 112 96 97 80 38 355 317 343 11 334 295 308 280 277 289 296 299 243 283 280 268 254 246 225 234 248 258 259 253 245 240 249 243 215 212 201 199 195 203 197 197 188
124 121 110 90 76 63 6 0 319 300 292 287 284 300 300 307 309 298 299 295 279 275 258 252 241 223 232 248 255 261 252 242 242 241 259 213 202 199 196 200 201 198 192
156 139 126 114 87 55 353 359 346 323 302 293 293 291 288 287 288 283 288 294 294 299 294 283 270 240 230 232 234 256 261 238 235 230 230 236 214 210 195 200 198 194 190
160 106 81 54 28 14 357 342 320 301 296 281 289 296 291 286 292 295 300 301 298 302 299 297 303 296 251 241 240 246 252 234 230 226 234 243 235 231 196 194 194 194 191
114 82 71 60 27 9 341 334 337 337 337 333 319 309 298 288 284 286 282 297 296 292 288 288 290 294 285 248 247 245 253 238 231 229 230 234 231 222 197 197 189 190 189
133 85 56 35 23 30 17 347 327 314 321 319 309 312 311 306 307 308 299 286 280 294 287 301 288 295 308 329 280 258 252 242 229 224 229 237 239 229 197 193 185 181 183
83 61 55 59 22 349 309 324 323 315 313 310 305 306 303 300 296 296 295 292 293 293 289 295 288 290 281 286 307 273 256 244 249 227 223 228 238 231 220 184 171 159 166
87 67 46 39 12 5 12 0 348 330 318 310 302 303 308 306 301 299 291 286 278 273 274 288 285 290 282 287 300 300 266 238 238 238 231 230 225 211 177 158 165 165 158
85 66 42 28 10 12 12 352 330 313 310 314 314 313 308 310 306 300 294 289 286 277 272 278 277 274 269 271 291 311 293 258 247 242 230 229 227 212 206 178 159 148 141
85 68 61 31 32 14 342 311 293 323 321 314 310 308 304 303 295 288 285 283 280 282 282 283 284 279 275 252 263 266 263 266 239 236 228 225 224 217 161 150 143 134 131
94 86 49 48 33 338 306 308 340 336 321 311 303 297 296 293 294 295 288 284 282 279 277 273 273 274 271 260 244 261 272 239 228 203 223 222 193 179 160 146 140 134 134
95 53 46 37 338 305 324 4 335 323 315 307 305 296 297 292 302 301 299 296 290 281 274 271 269 268 260 257 241 247 266 175 7 33 83 150 165 149 138 133 129 130 131
62 59 51 331 346 317 10 349 336 322 314 306 303 311 306 308 302 305 297 293 281 277 270 264 263 254 251 240 235 230 181 115 72 352 89 30 120 143 131 129 133 129 126
77 42 44 28 324 329 341 337 333 318 309 305 305 307 308 304 307 308 300 291 290 277 257 257 255 243 241 227 213 173 194 133 111 118 107 56 20 75 98 140 130 129 128
124 202 134 325 324 320 329 330 333 312 306 299 313 309 297 309 312 308 310 309 305 293 280 263 240 237 226 212 196 177 125 95 82 41 70 91 47 73 98 126 120 123 123
170 185 124 171 239 275 315 341 340 329 322 310 306 294 305 315 308 323 323 316 315 318 316 302 226 200 202 190 139 115 128 124 112 40 48 106 106 96 82 92 111 120 125
188 131 155 212 239 245 306 342 353 330 326 322 309 318 325 323 330 341 335 320 327 338 346 9 51 146 219 154 153 153 148 140 127 84 282 97 130 113 74 47 111 120 122